Tiempo cada hora Dalai

Hoy, 1 Diciembre, Martes

Tiempo Temperatura Precipitaciones Viento Presión Humedad
00:00 -14°C° 0 mm 2 mps 764 mmHg 67%
01:00 -15°C° 0 mm 2 mps 763 mmHg 68%
02:00 -15°C° 0 mm 2 mps 764 mmHg 70%
03:00 -15°C° 0 mm 2 mps 764 mmHg 70%
04:00 -15°C° 0 mm 2 mps 764 mmHg 70%
05:00 -16°C° 0 mm 2 mps 763 mmHg 70%
06:00 -16°C° 0 mm 2 mps 764 mmHg 71%
07:00 -16°C° 0 mm 2 mps 764 mmHg 71%
08:00 -15°C° 0 mm 2 mps 764 mmHg 72%
09:00 -15°C° 0 mm 3 mps 764 mmHg 70%
10:00 -14°C° 0 mm 3 mps 763 mmHg 67%
11:00 -12°C° 0 mm 4 mps 763 mmHg 65%
12:00 -12°C° 0 mm 4 mps 763 mmHg 64%
13:00 -11°C° 0 mm 4 mps 762 mmHg 63%
14:00 -11°C° 0 mm 4 mps 762 mmHg 63%
15:00 -12°C° 0 mm 4 mps 762 mmHg 65%
16:00 -14°C° 0 mm 4 mps 762 mmHg 68%
17:00 -14°C° 0 mm 3 mps 761 mmHg 70%
18:00 -14°C° 0 mm 3 mps 761 mmHg 69%
19:00 -16°C° 0 mm 4 mps 761 mmHg 69%
20:00 -16°C° 0 mm 4 mps 761 mmHg 68%
21:00 -16°C° 0 mm 4 mps 761 mmHg 70%
22:00 -15°C° 0 mm 3 mps 761 mmHg 71%
23:00 -15°C° 0 mm 3 mps 761 mmHg 72%

Mañana, 2 Diciembre, Miércoles

Tiempo Temperatura Precipitaciones Viento Presión Humedad
00:00 -16°C° 0 mm 3 mps 761 mmHg 74%
01:00 -16°C° 0 mm 3 mps 761 mmHg 75%
02:00 -16°C° 0 mm 3 mps 761 mmHg 76%
03:00 -17°C° 0 mm 3 mps 760 mmHg 77%
04:00 -17°C° 0 mm 3 mps 760 mmHg 77%
05:00 -17°C° 0 mm 3 mps 760 mmHg 77%
06:00 -17°C° 0 mm 3 mps 760 mmHg 77%
07:00 -17°C° 0 mm 3 mps 760 mmHg 77%
08:00 -17°C° 0 mm 3 mps 760 mmHg 77%
09:00 -15°C° 0 mm 3 mps 760 mmHg 73%
10:00 -14°C° 0 mm 3 mps 760 mmHg 68%
11:00 -12°C° 0 mm 3 mps 760 mmHg 63%
12:00 -10°C° 0 mm 3 mps 759 mmHg 61%
13:00 -10°C° 0 mm 3 mps 759 mmHg 60%
14:00 -9°C° 0 mm 3 mps 758 mmHg 58%
15:00 -12°C° 0 mm 3 mps 758 mmHg 62%
16:00 -13°C° 0 mm 3 mps 758 mmHg 66%
17:00 -13°C° 0 mm 2 mps 758 mmHg 70%
18:00 -14°C° 0 mm 2 mps 759 mmHg 69%
19:00 -14°C° 0 mm 2 mps 759 mmHg 69%
20:00 -14°C° 0 mm 2 mps 759 mmHg 68%
21:00 -14°C° 0 mm 2 mps 759 mmHg 68%
22:00 -14°C° 0 mm 2 mps 759 mmHg 68%
23:00 -14°C° 0 mm 2 mps 759 mmHg 68%

Pasado mañana, 3 Diciembre, Jueves

Tiempo Temperatura Precipitaciones Viento Presión Humedad
00:00 -15°C° 0 mm 2 mps 759 mmHg 68%
01:00 -15°C° 0 mm 2 mps 759 mmHg 69%
02:00 -15°C° 0 mm 2 mps 759 mmHg 69%
03:00 -15°C° 0 mm 2 mps 759 mmHg 69%
04:00 -16°C° 0 mm 2 mps 759 mmHg 69%
05:00 -16°C° 0 mm 2 mps 759 mmHg 68%
06:00 -16°C° 0 mm 2 mps 759 mmHg 69%
07:00 -15°C° 0 mm 2 mps 759 mmHg 70%
08:00 -16°C° 0 mm 3 mps 759 mmHg 71%
09:00 -15°C° 0 mm 3 mps 759 mmHg 67%
10:00 -14°C° 0 mm 4 mps 759 mmHg 64%
11:00 -12°C° 0 mm 5 mps 759 mmHg 60%
12:00 -11°C° 0 mm 5 mps 758 mmHg 59%
13:00 -11°C° 0 mm 5 mps 758 mmHg 57%
14:00 -10°C° 0 mm 5 mps 757 mmHg 56%
15:00 -11°C° 0 mm 5 mps 757 mmHg 59%
16:00 -12°C° 0 mm 4 mps 757 mmHg 62%
17:00 -14°C° 0 mm 4 mps 757 mmHg 64%
18:00 -14°C° 0 mm 4 mps 757 mmHg 65%
19:00 -14°C° 0 mm 4 mps 757 mmHg 65%
20:00 -14°C° 0 mm 4 mps 757 mmHg 65%
21:00 -15°C° 0 mm 4 mps 757 mmHg 66%
22:00 -15°C° 0 mm 4 mps 757 mmHg 68%
23:00 -15°C° 0 mm 4 mps 757 mmHg 69%

4 Diciembre, Viernes

Tiempo Temperatura Precipitaciones Viento Presión Humedad
00:00 -16°C° 0 mm 4 mps 757 mmHg 70%
01:00 -16°C° 0 mm 4 mps 757 mmHg 70%
02:00 -16°C° 0 mm 4 mps 756 mmHg 71%
03:00 -17°C° 0 mm 4 mps 756 mmHg 72%
04:00 -17°C° 0 mm 4 mps 756 mmHg 72%
05:00 -17°C° 0 mm 4 mps 755 mmHg 73%
06:00 -17°C° 0 mm 4 mps 755 mmHg 73%
07:00 -17°C° 0 mm 4 mps 755 mmHg 73%
08:00 -17°C° 0 mm 4 mps 756 mmHg 73%
09:00 -15°C° 0 mm 4 mps 755 mmHg 69%
10:00 -14°C° 0 mm 5 mps 755 mmHg 64%
11:00 -12°C° 0 mm 5 mps 755 mmHg 60%
12:00 -12°C° 0 mm 5 mps 754 mmHg 59%
13:00 -11°C° 0 mm 6 mps 754 mmHg 57%
14:00 -11°C° 0 mm 6 mps 753 mmHg 55%
15:00 -12°C° 0 mm 5 mps 753 mmHg 60%
16:00 -13°C° 0 mm 5 mps 753 mmHg 64%
17:00 -13°C° 0 mm 5 mps 753 mmHg 69%
18:00 -14°C° 0 mm 5 mps 753 mmHg 70%
19:00 -14°C° 0 mm 5 mps 753 mmHg 71%
20:00 -14°C° 0 mm 5 mps 753 mmHg 72%
21:00 -14°C° 0 mm 5 mps 753 mmHg 74%
22:00 -15°C° 0 mm 4 mps 753 mmHg 75%
23:00 -15°C° 0 mm 4 mps 753 mmHg 77%

5 Diciembre, Sábado

Tiempo Temperatura Precipitaciones Viento Presión Humedad
00:00 -15°C° 0 mm 4 mps 753 mmHg 78%
01:00 -14°C° 0 mm 3 mps 753 mmHg 78%
02:00 -15°C° 0 mm 3 mps 754 mmHg 79%
03:00 -15°C° 0 mm 3 mps 754 mmHg 78%
04:00 -15°C° 0 mm 3 mps 754 mmHg 77%
05:00 -15°C° 0 mm 3 mps 754 mmHg 77%
06:00 -15°C° 0 mm 3 mps 754 mmHg 76%
07:00 -15°C° 0 mm 3 mps 755 mmHg 76%
08:00 -15°C° 0 mm 3 mps 755 mmHg 76%
09:00 -13°C° 0 mm 3 mps 755 mmHg 72%
10:00 -12°C° 0 mm 3 mps 756 mmHg 68%
11:00 -9°C° 0 mm 3 mps 756 mmHg 65%
12:00 -9°C° 0 mm 3 mps 756 mmHg 65%
13:00 -8°C° 0 mm 3 mps 755 mmHg 65%
14:00 -8°C° 0 mm 3 mps 755 mmHg 65%
15:00 -9°C° 0 mm 3 mps 755 mmHg 69%
16:00 -12°C° 0 mm 3 mps 755 mmHg 73%
17:00 -13°C° 0 mm 3 mps 755 mmHg 77%
18:00 -13°C° 0 mm 3 mps 756 mmHg 79%
19:00 -14°C° 0 mm 3 mps 756 mmHg 80%
20:00 -14°C° 0 mm 3 mps 756 mmHg 82%
21:00 -14°C° 0 mm 3 mps 756 mmHg 82%
22:00 -14°C° 0 mm 3 mps 756 mmHg 81%
23:00 -15°C° 0 mm 3 mps 756 mmHg 81%

6 Diciembre, Domingo

Tiempo Temperatura Precipitaciones Viento Presión Humedad
00:00 -14°C° 0 mm 2 mps 755 mmHg 81%
01:00 -14°C° 0 mm 2 mps 755 mmHg 81%
02:00 -14°C° 0 mm 2 mps 755 mmHg 81%
03:00 -12°C° 0 mm 1 mps 755 mmHg 80%
04:00 -12°C° 0 mm 1 mps 755 mmHg 79%
05:00 -12°C° 0 mm 1 mps 755 mmHg 79%
06:00 -12°C° 0 mm 1 mps 756 mmHg 77%
07:00 -12°C° 0 mm 1 mps 756 mmHg 76%
08:00 -11°C° 0 mm 1 mps 756 mmHg 74%
09:00 -10°C° 0 mm 1 mps 756 mmHg 69%
10:00 -9°C° 0 mm 2 mps 757 mmHg 63%
11:00 -8°C° 0 mm 2 mps 757 mmHg 58%
12:00 -7°C° 0 mm 2 mps 757 mmHg 57%
13:00 -7°C° 0 mm 2 mps 757 mmHg 56%
14:00 -7°C° 0 mm 2 mps 757 mmHg 55%
15:00 -8°C° 0 mm 2 mps 757 mmHg 57%
16:00 -10°C° 0 mm 2 mps 758 mmHg 60%
17:00 -10°C° 0 mm 1 mps 758 mmHg 62%
18:00 -11°C° 0 mm 1 mps 758 mmHg 63%
19:00 -11°C° 0 mm 1 mps 758 mmHg 65%
20:00 -12°C° 0 mm 0 mps 759 mmHg 66%
21:00 -12°C° 0 mm 1 mps 759 mmHg 66%
22:00 -12°C° 0 mm 1 mps 759 mmHg 67%
23:00 -12°C° 0 mm 1 mps 759 mmHg 67%
Mostrar más

Necesitamos Su Consentimiento

Meteoprog y nuestros Proveedores de Servicios pueden almacenar y acceder a sus datos personales como cookies, identificadores de dispositivo u otras tecnologías similares de su dispositivo y procesar dichos datos para personalizar contenido y anuncios, además de ofrecer funciones de redes sociales y analizar el tráfico.

  • Almacenar y/o acceder a información en su dispositivo

    Se puede almacenar o acceder a cookies, identificadores de dispositivo u otra información de su dispositivo para los fines anteriormente indicados.

  • Anuncios y contenido personalizados, medición de anuncios y contenido, percepciones del público, y desarrollo de productos

    Los anuncios y el contenido pueden personalizarse en base a su perfil. Se pueden añadir más datos para personalizar mejor los anuncios y contenidos. Se puede medir el rendimiento de los anuncios y contenidos. Se puede obtener la percepción sobre el público que ha visto los anuncios y contenidos. Dichos datos pueden usarse para desarrollar o mejorar la experiencia del usuario, sistemas y software.

Al hacer clic en ‘Estoy De Acuerdo’ usted permitirá el uso de las cookies, identificadores de dispositivo, balizas web u otras tecnologías similares indicadas. Su configuración puede cambiarse desde el navegador de su dispositivo.

Para ciertos fines, los intereses legítimos pueden ser considerados por encima del consentimiento. Puede leer más sobre ello en nuestra Política de Privacidad y Cookies.